Location: Dyersburg
(36.0438°N, 89.3789°W)
Time: 11:43:19
(UTC+00:00)

LightSail 2 - Visible Passes

Search period start: 24 January 2020 00:00
Search period end: 03 February 2020 00:00
Orbit: 704 x 719 km, 24.0° (Epoch: 24 January)

Date Brightness Start Highest point End Pass type
(mag) Time Alt. Az. Time Alt. Az. Time Alt. Az.
24 Jan 7.1 00:04:07 10° SW 00:07:57 21° S 00:11:47 10° SE visible
24 Jan 7.4 01:49:33 10° SW 01:52:14 16° SSW 01:52:14 16° SSW visible
25 Jan 7.2 00:50:58 10° SW 00:54:31 19° S 00:57:35 12° SSE visible
25 Jan 7.3 23:52:30 10° SW 23:56:13 20° S 23:59:58 10° SE visible
26 Jan 7.5 01:38:48 10° SW 01:41:01 13° SSW 01:41:55 12° S visible
27 Jan 7.5 00:39:48 10° SW 00:42:44 15° SSW 00:45:41 10° SSE visible
27 Jan 7.5 23:41:06 10° SW 23:44:27 18° S 23:47:50 10° SSE visible
29 Jan 7.8 00:29:25 10° SW 00:30:55 11° SSW 00:32:25 10° S visible
